Date String (YYYY-MM-DD hh:mm:ss) UTC,Instrument flags,Ambient pressure (hPa),Sample flow (lpm),Bypass flow (lpm),Sample temperature (°C),Ambient temperature (°C),ASC tube jacket temperature (°C),LED temperature (°C),Box temperature (°C),Sample RH (%),Span deviation,Mass concentration (μg/m³),Mass concentration (μg/m³),Mass concentration (μg/m³)
DateTimeUTC,F1_M11,P_M11,Q1_M11,Q2_M11,T1_M11,T2_M11,T3_M11,T4_M11,T5_M11,U1_M11,ZSPAN_M11,X0_M11,X2_M11,X1_M11
2022-01-04 08:00:00,,0817.3,4.99,0.00,22.3,21.6,00.0,31.3,24.0,05.9,0000.0,0003.49,0002.61,0002.40
2022-01-04 08:01:00,,0817.3,5.01,0.00,22.2,21.5,00.0,31.3,23.9,06.0,0000.0,0003.04,0002.33,0002.17
2022-01-04 08:02:00,,0817.3,4.99,0.00,22.2,21.5,00.0,31.3,23.9,06.1,0000.0,0002.74,0002.10,0001.97
2022-01-04 08:03:00,,0817.1,5.00,0.00,22.2,21.5,00.0,31.3,23.9,06.1,0000.0,0002.43,0001.83,0001.71
2022-01-04 08:04:00,,0817.2,5.00,0.00,22.2,21.5,00.0,31.3,23.9,06.2,0000.0,0002.14,0001.57,0001.47
2022-01-04 08:05:00,,0817.3,5.01,0.00,22.2,21.5,00.0,31.3,23.8,06.5,0000.0,0001.95,0001.38,0001.28
2022-01-04 08:06:00,,0817.4,4.99,0.00,22.2,21.7,00.0,31.3,23.9,06.7,0000.0,0001.77,0001.19,0001.10
2022-01-04 08:07:00,,0817.5,5.00,0.00,22.3,22.4,00.0,31.3,24.2,06.7,0000.0,0001.31,0001.07,0000.96
2022-01-04 08:08:00,,0817.4,5.00,0.00,22.5,23.0,00.0,31.3,24.4,06.7,0000.0,0001.32,0000.95,0000.81
2022-01-04 08:09:00,,0817.3,5.01,0.00,22.5,22.8,00.0,31.4,24.4,06.3,0000.0,0001.27,0000.87,0000.71
2022-01-04 08:10:00,,0817.3,5.00,0.00,22.5,22.6,00.0,31.4,24.4,06.2,0000.0,0001.25,0000.85,0000.70
2022-01-04 08:11:00,,0817.2,5.01,0.00,22.5,22.4,00.0,31.4,24.3,06.2,0000.0,0001.19,0000.80,0000.67
2022-01-04 08:12:00,,0817.3,5.00,0.00,22.5,22.2,00.0,31.4,24.2,06.1,0000.0,0001.20,0000.77,0000.64
2022-01-04 08:13:00,,0817.2,5.00,0.00,22.5,22.1,00.0,31.4,24.1,06.0,0000.0,0001.21,0000.76,0000.64
2022-01-04 08:14:00,,0817.3,5.00,0.00,22.4,22.0,00.0,31.4,24.1,06.2,0000.0,0001.22,0000.76,0000.63
2022-01-04 08:15:00,,0817.2,5.00,0.00,22.4,21.9,00.0,31.4,24.0,06.2,0000.0,0001.28,0000.78,0000.61
2022-01-04 08:16:00,,0817.2,5.01,0.00,22.4,21.8,00.0,31.4,24.0,06.4,0000.0,0001.24,0000.75,0000.59
2022-01-04 08:17:00,,0817.2,4.99,0.00,22.3,21.7,00.0,31.4,23.9,06.4,0000.0,0001.18,0000.71,0000.56
2022-01-04 08:18:00,,0817.2,5.00,0.00,22.3,21.6,00.0,31.4,23.9,06.6,0000.0,0001.11,0000.64,0000.50
2022-01-04 08:19:00,,0817.4,5.01,0.00,22.3,21.5,00.0,31.4,23.9,06.8,0000.0,0000.90,0000.54,0000.41
2022-01-04 08:20:00,,0817.5,4.98,0.00,22.2,21.4,00.0,31.3,23.8,07.2,0000.0,0000.86,0000.52,0000.39
2022-01-04 08:21:00,,0817.5,5.01,0.00,22.2,21.4,00.0,31.3,23.7,07.6,0000.0,0001.38,0000.67,0000.51
2022-01-04 08:22:00,,0817.5,5.00,0.00,22.1,21.3,00.0,31.3,23.7,07.4,0000.0,0001.61,0000.86,0000.66
2022-01-04 08:23:00,,0817.4,5.01,0.00,22.1,21.2,00.0,31.3,23.7,06.8,0000.0,0001.58,0000.87,0000.69
2022-01-04 08:24:00,,0817.5,4.98,0.00,22.0,21.2,00.0,31.3,23.6,06.8,0000.0,0001.52,0000.87,0000.69
2022-01-04 08:25:00,,0817.5,5.01,0.00,22.0,21.2,00.0,31.2,23.4,06.9,0000.0,0001.51,0000.87,0000.71
2022-01-04 08:26:00,,0817.4,4.99,0.00,22.0,21.1,00.0,31.2,23.5,06.9,0000.0,0003.13,0000.90,0000.74
2022-01-04 08:27:00,,0817.6,5.01,0.00,22.0,21.1,00.0,31.2,23.5,06.2,0000.0,0004.67,0000.95,0000.75
2022-01-04 08:28:00,,0817.6,5.01,0.00,22.0,21.7,00.0,31.2,23.7,06.3,0000.0,0004.61,0000.93,0000.74
2022-01-04 08:29:00,,0817.7,4.99,0.00,22.2,22.6,00.0,31.3,24.0,06.5,0000.0,0004.63,0000.93,0000.74
2022-01-04 08:30:00,,0817.7,5.00,0.00,22.3,23.0,00.0,31.3,24.2,06.5,0000.0,0004.63,0000.93,0000.74
2022-01-04 08:31:00,,0817.6,4.99,0.00,22.3,22.7,00.0,31.3,24.2,06.6,0000.0,0004.67,0000.88,0000.70
2022-01-04 08:32:00,,0817.5,5.00,0.00,22.3,22.4,00.0,31.3,24.1,06.5,0000.0,0004.23,0000.71,0000.56
2022-01-04 08:33:00,,0817.5,5.00,0.00,22.3,22.2,00.0,31.3,24.0,06.5,0000.0,0004.00,0000.52,0000.41
2022-01-04 08:34:00,,0817.6,5.00,0.00,22.2,22.0,00.0,31.3,23.9,06.7,0000.0,0003.99,0000.50,0000.38
2022-01-04 08:35:00,,0817.5,5.00,0.00,22.2,21.9,00.0,31.3,23.9,06.9,0000.0,0004.00,0000.50,0000.38
2022-01-04 08:36:00,,0817.6,5.00,0.00,22.2,21.7,00.0,31.3,23.8,06.9,0000.0,0003.98,0000.48,0000.36
2022-01-04 08:37:00,,0817.6,4.99,0.00,22.1,21.6,00.0,31.2,23.7,07.0,0000.0,0002.04,0000.42,0000.32
2022-01-04 08:38:00,,0817.6,4.99,0.00,22.1,21.5,00.0,31.2,23.7,06.8,0000.0,0000.82,0000.38,0000.31
2022-01-04 08:39:00,,0817.6,5.01,0.00,22.1,21.3,00.0,31.2,23.6,06.6,0000.0,0000.82,0000.38,0000.31
2022-01-04 08:40:00,,0817.7,5.01,0.00,22.0,21.3,00.0,31.2,23.5,06.8,0000.0,0000.80,0000.38,0000.32
2022-01-04 08:41:00,,0817.7,4.99,0.00,22.0,21.2,00.0,31.2,23.5,07.1,0000.0,0000.74,0000.36,0000.31
2022-01-04 08:42:00,,0817.6,5.01,0.00,21.9,21.2,00.0,31.1,23.5,06.9,0000.0,0000.56,0000.35,0000.31
2022-01-04 08:43:00,,0817.8,4.99,0.00,21.9,21.1,00.0,31.1,23.5,06.7,0000.0,0000.50,0000.35,0000.32
2022-01-04 08:44:00,,0817.7,5.00,0.00,21.9,21.1,00.0,31.1,23.4,06.7,0000.0,0000.52,0000.36,0000.32
2022-01-04 08:45:00,,0817.7,5.00,0.00,21.8,21.0,00.0,31.1,23.3,06.7,0000.0,0000.49,0000.35,0000.32
2022-01-04 08:46:00,,0817.7,4.99,0.00,21.8,21.0,00.0,31.0,23.3,06.8,0000.0,0000.48,0000.35,0000.32
2022-01-04 08:47:00,,0817.7,5.01,0.00,21.8,20.9,00.0,31.0,23.3,06.9,0000.0,0000.47,0000.34,0000.31
2022-01-04 08:48:00,,0817.6,4.99,0.00,21.7,20.9,00.0,31.0,23.2,07.0,0000.0,0000.42,0000.34,0000.31
2022-01-04 08:49:00,,0817.6,5.01,0.00,21.8,21.4,00.0,31.0,23.4,07.2,0000.0,0000.41,0000.34,0000.32
2022-01-04 08:50:00,,0817.7,4.99,0.00,21.9,22.2,00.0,31.0,23.8,06.9,0000.0,0000.41,0000.34,0000.32
2022-01-04 08:51:00,,0817.8,5.00,0.00,22.1,23.0,00.0,31.1,24.1,07.1,0000.0,0000.43,0000.35,0000.32
2022-01-04 08:52:00,,0817.8,5.00,0.00,22.2,22.9,00.0,31.1,24.1,07.1,0000.0,0000.46,0000.36,0000.33
2022-01-04 08:53:00,,0817.8,5.01,0.00,22.2,22.6,00.0,31.1,24.0,07.0,0000.0,0000.50,0000.39,0000.33
2022-01-04 08:54:00,,0817.7,5.01,0.00,22.2,22.4,00.0,31.1,24.0,07.0,0000.0,0000.54,0000.41,0000.33
2022-01-04 08:55:00,,0817.7,4.99,0.00,22.2,22.2,00.0,31.1,24.0,06.7,0000.0,0000.53,0000.41,0000.33
2022-01-04 08:56:00,,0817.8,5.00,0.00,22.2,22.0,00.0,31.1,23.9,06.8,0000.0,0000.53,0000.42,0000.33
2022-01-04 08:57:00,,0817.7,5.01,0.00,22.2,21.9,00.0,31.1,23.8,07.0,0000.0,0000.53,0000.42,0000.33
2022-01-04 08:58:00,,0817.7,5.00,0.00,22.2,21.8,00.0,31.1,23.8,06.8,0000.0,0000.58,0000.44,0000.34
2022-01-04 08:59:00,,0817.7,4.99,0.00,22.1,21.6,00.0,31.1,23.7,06.8,0000.0,0000.61,0000.45,0000.35
